Flag for Germany Weather past 2 weeks in Berlin, Berlin, Germany

Now
38 °F

Chilly.


Feels Like: 32 °F
Forecast: 33 / 39 °F
Wind: 8 mph from Southwest

Location: Berlin-Tempelhof

Current Time: Jan 29, 2015 at 12:24:38 AM

Latest Report: Jan 29, 2015 at 12:00 AM


Visibility: N/A

Pressure: 29.29 "Hg

Humidity: 93%

Dew point: 36 °F

Location of BerlinLocation

Historic Weather in Berlin — Graph

°F

Berlin temperature yesterday

Maximum temperature yesterday: 42 °F (at 3:00 PM)
Minimum temperature yesterday: 33 °F (at 1:00 AM)
Average temperature yesterday: 38 °F

Past Weeks' High & Low Weather Summary

 TemperatureHumidityPressure
High51 °F (Jan 13, 11:00 PM)99% (Jan 28, 5:00 AM)30.33 "Hg (Jan 28, 5:00 AM)
Low26 °F (Jan 19, 7:00 AM)55% (Jan 16, 2:00 AM)29.29 "Hg (Jan 28, 11:00 PM)
Average36 °F86%29.98 "Hg
* Reported Jan 13 11:00 PM — Jan 28 11:00 PM, Berlin, Weather by CustomWeather, © 2014

Note: Actual official high and low records may vary slightly from our data, if they occured in-between our weather recording intervals... More about our weather records

Advertising

Berlin weather history for previous 24 hours

 ConditionsComfort  
Time TempWeatherWind HumidityBarometerVisibility
11:00 PM
Jan 28
37 °FChilly.8 mph93%29.29 "HgN/A
10:00 PM37 °FChilly.8 mph91%29.32 "HgN/A
9:00 PM39 °FChilly.10 mph84%29.35 "HgN/A
8:00 PM41 °FQuite cool.8 mph71%29.38 "HgN/A
6:00 PM41 °FQuite cool.8 mph72%29.50 "HgN/A
5:00 PM41 °FQuite cool.7 mph71%29.57 "HgN/A
4:00 PM42 °FQuite cool.7 mph72%29.63 "HgN/A
3:00 PM42 °FQuite cool.7 mph72%29.69 "HgN/A
2:00 PM41 °FQuite cool.8 mph73%29.73 "HgN/A
1:00 PM40 °FQuite cool.7 mph76%29.79 "HgN/A
12:00 PM40 °FQuite cool.7 mph80%29.85 "HgN/A
11:00 AM39 °FChilly.6 mph82%29.88 "HgN/A
10:00 AM38 °FChilly.5 mph88%29.91 "HgN/A
9:00 AM37 °FChilly.3 mph92%29.93 "HgN/A
8:00 AM37 °FChilly.3 mph95%29.95 "HgN/A
7:00 AM36 °FChilly.3 mph95%29.97 "HgN/A
6:00 AM35 °FChilly.5 mph97%29.99 "HgN/A
5:00 AM35 °FChilly.3 mph99%30.01 "HgN/A
4:00 AM34 °FChilly.5 mph98%30.02 "HgN/A
3:00 AM34 °FChilly.5 mph97%30.04 "HgN/A
2:00 AM34 °FChilly.5 mph96%30.04 "HgN/A
1:00 AM33 °FChilly.3 mph93%30.04 "HgN/A
12:00 AM33 °FChilly.3 mph90%30.04 "HgN/A
Weather by CustomWeather, © 2014

See weather overviewHow to use our weather pages